This demonstration page uses our WeatherBlox Daily Observations layout. Learn more.

Hourly Observations for January 18, 2016

Temp ( °F °C ) Dew Point ( °F °C ) Humidity (%) Winds ( mph kmh ) Pressure ( in mb ) Visibility ( mi km ) Precip ( " mm )
12:15 am 00:15 Cloudy 14 -9.8 8 -13.1 77 77 Calm 30.45 1031 10 16.0934 0 0
12:35 am 00:35 Cloudy 14 -10.1 8 -13.2 78 78 Calm 30.45 1031 10 16.0934 0 0
12:55 am 00:55 Mostly Cloudy 13 -10.5 8 -13.1 81 81 SE 3 6 30.45 1031 10 16.0934 0 0
1:15 am 01:15 Partly Cloudy 12 -11.2 8 -13.5 83 83 SE 5 7 30.45 1031 10 16.0934 0 0
1:35 am 01:35 Partly Cloudy 10 -12.1 6 -14.3 84 84 SE 6 9 30.45 1031 10 16.0934 0 0
1:55 am 01:55 Clear 9 -12.7 5 -14.9 84 84 ESE 5 7 30.45 1031 10 16.0934 0 0
2:15 am 02:15 Clear 9 -12.6 6 -14.5 86 86 ESE 5 7 30.45 1031 10 16.0934 0 0
2:35 am 02:35 Clear 9 -12.6 6 -14.5 86 86 SE 5 7 30.45 1031 10 16.0934 0 0
2:55 am 02:55 Clear 9 -12.6 6 -14.7 84 84 SSE 5 7 30.45 1031 10 16.0934 0 0
3:15 am 03:15 Partly Cloudy 10 -12.5 6 -14.5 85 85 SSE 3 6 30.45 1031 10 16.0934 0 0
3:35 am 03:35 Partly Cloudy 8 -13.1 5 -15.2 84 84 SSE 6 9 30.45 1031 10 16.0934 0 0
3:55 am 03:55 Clear 8 -13.1 5 -15.2 84 84 SE 5 7 30.42 1030 10 16.0934 0 0
4:15 am 04:15 Clear 9 -13 5 -14.8 87 87 SE 5 7 30.42 1030 10 16.0934 0 0
4:35 am 04:35 Clear 8 -13.1 5 -15 86 86 ESE 3 6 30.42 1030 10 16.0934 0 0
4:55 am 04:55 Clear 8 -13.2 5 -15.2 85 85 SE 5 7 30.42 1030 10 16.0934 0 0
5:15 am 05:15 Partly Cloudy 8 -13.2 4 -15.3 84 84 SSE 5 7 30.42 1030 10 16.0934 0 0
5:35 am 05:35 Clear 9 -13 5 -15 85 85 SSE 3 6 30.42 1030 10 16.0934 0 0
5:55 am 05:55 Clear 9 -12.7 6 -14.6 86 86 SSE 5 7 30.42 1030 10 16.0934 0 0
6:15 am 06:15 Clear 9 -12.6 6 -14.5 86 86 SSE 3 6 30.42 1030 10 16.0934 0 0
6:35 am 06:35 Clear 10 -12 8 -13.6 88 88 SSE 6 9 30.42 1030 10 16.0934 0 0
6:55 am 06:55 Clear 10 -12 7 -13.7 87 87 SSE 6 9 30.42 1030 10 16.0934 0 0
7:15 am 07:15 Mostly Cloudy 11 -11.5 8 -13.3 87 87 SSE 5 7 30.42 1030 10 16.0934 0 0
7:35 am 07:35 Mostly Cloudy 12 -11.3 8 -13.2 86 86 SSE 3 6 30.42 1030 10 16.0934 0 0
7:55 am 07:55 Clear 11 -11.5 8 -13.3 87 87 SSE 3 6 30.42 1030 10 16.0934 0 0
8:15 am 08:15 Sunny 12 -11.2 8 -13.1 86 86 SSE 6 9 30.42 1030 10 16.0934 0 0
8:35 am 08:35 Sunny 13 -10.6 9 -12.8 84 84 SSE 7 11 30.42 1030 10 16.0934 0 0
8:55 am 08:55 Mostly Cloudy 15 -9.6 11 -11.7 85 85 SSE 7 11 30.39 1029 10 16.0934 0 0
9:15 am 09:15 Cloudy 17 -8.6 13 -10.7 85 85 S 8 13 30.39 1029 10 16.0934 0 0
9:35 am 09:35 Cloudy 18 -7.7 14 -10 84 84 S 8 13 30.39 1029 10 16.0934 0 0
9:55 am 09:55 Cloudy 18 -7.6 15 -9.7 85 85 SSE 9 15 30.39 1029 10 16.0934 0 0
10:15 am 10:15 Cloudy 19 -7.2 15 -9.4 84 84 S 10 17 30.36 1028 10 16.0934 0 0
10:35 am 10:35 Cloudy 20 -6.8 16 -9.1 84 84 S 10 17 30.36 1028 10 16.0934 0 0
10:55 am 10:55 Cloudy 20 -6.4 16 -8.9 83 83 S 12 19 30.36 1028 10 16.0934 0 0
11:15 am 11:15 Cloudy 21 -6.2 16 -9 81 81 S 12 19 30.36 1028 10 16.0934 0 0
11:35 am 11:35 Cloudy 22 -5.7 16 -8.8 79 79 S 13 20 30.33 1027 10 16.0934 0 0
11:55 am 11:55 Cloudy 22 -5.4 16 -8.9 77 77 S 13 20 30.3 1026 10 16.0934 0 0
12:15 pm 12:15 Cloudy 23 -4.9 16 -8.8 74 74 S 14 22 30.3 1026 10 16.0934 0 0
12:35 pm 12:35 Cloudy 25 -4.1 16 -8.7 71 71 S 9 15 30.27 1025 10 16.0934 0 0
12:55 pm 12:55 Partly Cloudy 27 -2.8 17 -8.6 65 65 S 12 19 30.27 1025 10 16.0934 0 0
1:15 pm 13:15 Partly Cloudy 28 -2.3 17 -8.6 62 62 SSW 15 24 30.24 1024 10 16.0934 0 0
1:35 pm 13:35 Sunny 28 -2 17 -8.6 61 61 S 12 19 30.21 1023 10 16.0934 0 0
1:55 pm 13:55 Sunny 29 -1.6 17 -8.4 60 60 S 12 19 30.21 1023 10 16.0934 0 0
2:15 pm 14:15 Partly Cloudy 30 -1.2 17 -8.4 58 58 S 13 20 30.21 1023 10 16.0934 0 0
2:35 pm 14:35 Sunny 29 -1.4 17 -8.3 60 60 S 12 19 30.21 1023 10 16.0934 0 0
2:55 pm 14:55 Sunny 30 -1.3 17 -8.1 60 60 S 13 20 30.18 1022 10 16.0934 0 0
3:15 pm 15:15 Sunny 29 -1.8 17 -8.1 62 62 SSE 15 24 30.18 1022 10 16.0934 0 0
3:35 pm 15:35 Sunny 29 -1.6 17 -8.1 62 62 S 14 22 30.18 1022 10 16.0934 0 0
3:55 pm 15:55 Sunny 29 -1.5 18 -8 62 62 S 12 19 30.18 1022 10 16.0934 0 0
4:15 pm 16:15 Sunny 28 -2 18 -8 64 64 SSE 13 20 30.18 1022 10 16.0934 0 0
4:35 pm 16:35 Sunny 28 -2.1 18 -7.8 65 65 SSE 8 13 30.18 1022 10 16.0934 0 0
4:55 pm 16:55 Sunny 28 -2 18 -7.7 65 65 SSE 9 15 30.18 1022 10 16.0934 0 0
5:15 pm 17:15 Sunny 28 -2.2 18 -7.6 67 67 SSE 9 15 30.18 1022 10 16.0934 0 0
5:35 pm 17:35 Mostly Cloudy 28 -2.5 18 -7.7 68 68 SSE 10 17 30.18 1022 10 16.0934 0 0
5:55 pm 17:55 Cloudy 27 -2.6 18 -7.7 68 68 SSE 13 20 30.21 1023 10 16.0934 0 0
6:15 pm 18:15 Partly Cloudy 27 -2.8 18 -7.7 69 69 SE 10 17 30.21 1023 10 16.0934 0 0
6:35 pm 18:35 Clear 27 -3 18 -7.6 71 71 SE 12 19 30.21 1023 10 16.0934 0 0
6:55 pm 18:55 Partly Cloudy 27 -3 19 -7.5 71 71 SSE 10 17 30.21 1023 10 16.0934 0 0
7:15 pm 19:15 Mostly Cloudy 27 -2.7 19 -7.3 71 71 SSE 8 13 30.21 1023 10 16.0934 0 0
7:35 pm 19:35 Cloudy 27 -2.6 18 -7.6 69 69 SSE 10 17 30.21 1023 10 16.0934 0 0
7:55 pm 19:55 Cloudy 27 -2.7 18 -7.7 69 69 SSE 9 15 30.21 1023 10 16.0934 0 0
8:15 pm 20:15 Cloudy 27 -2.8 18 -7.8 69 69 SSE 12 19 30.21 1023 10 16.0934 0 0
8:35 pm 20:35 Cloudy 27 -3 18 -8 69 69 SSE 12 19 30.21 1023 10 16.0934 0 0
8:55 pm 20:55 Cloudy 27 -2.9 18 -7.9 69 69 SSE 12 19 30.21 1023 10 16.0934 0 0
9:15 pm 21:15 Mostly Cloudy 27 -3 18 -8 69 69 SSE 8 13 30.21 1023 10 16.0934 0 0
9:35 pm 21:35 Mostly Cloudy 26 -3.1 18 -8 69 69 SSE 12 19 30.21 1023 10 16.0934 0 0
9:55 pm 21:55 Cloudy 26 -3.2 17 -8.2 69 69 SSE 13 20 30.21 1023 10 16.0934 0 0
10:15 pm 22:15 Cloudy 26 -3.3 17 -8.4 68 68 SSE 14 22 30.21 1023 10 16.0934 0 0
10:35 pm 22:35 Cloudy 26 -3.5 17 -8.5 69 69 SSE 10 17 30.21 1023 10 16.0934 0 0
10:55 pm 22:55 Cloudy 26 -3.5 17 -8.5 69 69 SSE 13 20 30.24 1024 10 16.0934 0 0
11:15 pm 23:15 Cloudy 26 -3.5 17 -8.5 69 69 SE 13 20 30.24 1024 10 16.0934 0 0
11:35 pm 23:35 Cloudy 26 -3.5 17 -8.5 69 69 SE 10 17 30.24 1024 10 16.0934 0 0
11:55 pm 23:55 Cloudy 26 -3.5 17 -8.5 69 69 SE 10 17 30.21 1023 10 16.0934 0 0

Powered by AerisWeather